Deming, NM

8:21 PM MDT on April 28, 2017 (GMT -0600)
Deming Municipal

Weather History for KDMN - April, 2014

Change the Weather History Date:

Thursday, April 10, 2014

  Actual Average Record
Temperature  
Mean Temperature 66 °F 58 °F  
Max Temperature 87 °F 76 °F 89 °F (1972)
Min Temperature 46 °F 40 °F 30 °F (1973)
Cooling Degree Days 2    
Growing Degree Days 16 (Base 50)    
Moisture  
Dew Point 1 °F    
Average Humidity 10    
Maximum Humidity 20    
Minimum Humidity 4    
Precipitation  
Precipitation 0.00 in 0.01 in 0.19 in (2004)
Month to date precipitation 0.11  
Year to date precipitation 1.73  
Sea Level Pressure  
Sea Level Pressure 29.90 in    
Wind  
Wind Speed 11 mph (West)    
Max Wind Speed 25 mph    
Max Gust Speed 33 mph    
Visibility 10 miles    
Events      
T = Trace of Precipitation, MM = Missing Value Source: NWS Daily Summary

Daily Weather History Graph

Daily Weather History Graph

Search for Another Location

Airport or City:

Trip Planner

Search our weather history database for the weather conditions in past years. The results will help you decide how hot, cold, wet, or windy it might be!

Date:

Astronomy

Apr. 10, 2014 Rise Set
Actual Time 6:47 AM MDT 7:37 PM MDT
Civil Twilight 6:22 AM MDT 8:02 PM MDT
Nautical Twilight 5:53 AM MDT 8:31 PM MDT
Astronomical Twilight 5:23 AM MDT 9:01 PM MDT
Moon 3:37 PM MDT (4/10) 3:57 AM MDT (4/10)
Length of Visible Light 13h 39m
Length of Day
12h 49m
Waxing Gibbous, 80% of the Moon is Illuminated
Apr 10
Waxing Gibbous
Apr 15
Full
Apr 22
Last Quarter
Apr 29
New
May 6
First Quarter

Hourly Weather History & Observations

Time (MDT) Temp. Windchill Dew Point Humidity Pressure Visibility Wind Dir Wind Speed Gust Speed Precip Events Conditions
12:53 AM 59.0 °F - 6.1 °F 12% 29.89 in 10.0 mi WNW 10.4 mph - N/A   Clear
1:53 AM 54.0 °F - 6.1 °F 15% 29.90 in 10.0 mi West 8.1 mph - N/A   Clear
2:53 AM 51.1 °F - 7.0 °F 17% 29.90 in 10.0 mi West 9.2 mph - N/A   Clear
3:53 AM 51.1 °F - 5.0 °F 15% 29.90 in 10.0 mi SW 5.8 mph - N/A   Clear
4:53 AM 48.9 °F - 7.0 °F 18% 29.91 in 10.0 mi SW 6.9 mph - N/A   Clear
5:53 AM 48.0 °F - 7.0 °F 19% 29.93 in 10.0 mi SW 4.6 mph - N/A   Clear
6:53 AM 46.0 °F 43.1 °F 6.1 °F 20% 29.95 in 10.0 mi WSW 5.8 mph - N/A   Clear
8:53 AM 57.9 °F - 10.9 °F 16% 29.98 in 10.0 mi WSW 5.8 mph - N/A   Clear
9:53 AM 71.1 °F - 10.9 °F 10% 29.98 in 10.0 mi West 9.2 mph - N/A   Clear
10:53 AM 75.9 °F - 9.0 °F 8% 29.97 in 10.0 mi West 11.5 mph - N/A   Clear
11:53 AM 81.0 °F - 1.9 °F 5% 29.94 in 10.0 mi West 17.3 mph 21.9 mph N/A   Clear
12:53 PM 84.0 °F - -2.9 °F 4% 29.91 in 10.0 mi WSW 16.1 mph 23.0 mph N/A   Clear
1:53 PM 84.9 °F - -11.9 °F 4% 29.89 in 10.0 mi West 20.7 mph 33.4 mph N/A   Clear
2:53 PM 87.1 °F - -16.1 °F 4% 29.87 in 10.0 mi West 25.3 mph 33.4 mph N/A   Clear
3:53 PM 86.0 °F - -7.1 °F 4% 29.84 in 10.0 mi West 19.6 mph 27.6 mph N/A   Clear
4:53 PM 86.0 °F - -5.1 °F 4% 29.84 in 10.0 mi West 16.1 mph 28.8 mph N/A   Clear
5:53 PM 82.9 °F - -8.0 °F 4% 29.85 in 10.0 mi West 23.0 mph 28.8 mph N/A   Clear
6:53 PM 81.0 °F - -5.1 °F 4% 29.85 in 10.0 mi West 12.7 mph 20.7 mph N/A   Clear
7:53 PM 73.9 °F - -4.0 °F 5% 29.86 in 10.0 mi NW 8.1 mph - N/A   Clear
8:53 PM 68.0 °F - -0.9 °F 6% 29.88 in 10.0 mi NW 5.8 mph - N/A   Clear
9:53 PM 60.1 °F - -0.0 °F 9% 29.88 in 10.0 mi NW 8.1 mph - N/A   Clear
10:53 PM 57.0 °F - 1.9 °F 11% 29.88 in 10.0 mi West 8.1 mph - N/A   Clear
11:53 PM 55.9 °F - -0.0 °F 10% 29.88 in 10.0 mi West 6.9 mph - N/A   Clear